Location: Aufkirchen
(47.9603°N, 11.3653°E)
Time: 15:02:54
(UTC+01:00)

Transit 2A Rocket - Pass Details

Date: 05 December 2020
Orbit: 592 x 910 km, 66.7° (Epoch: 21 January)

Event Time Altitude Azimuth Distance (km) Brightness Sun altitude
Rises 10:36:30 0° 312° (NW) 3,076 7.6 16.8°
Reaches altitude 10° 10:39:40 10° 292° (WNW) 2,091 6.9 17.0°
Maximum altitude 10:42:31 16° 254° (WSW) 1,665 6.8 17.2°
Drops below altitude 10° 10:45:16 10° 216° (SW) 1,989 7.7 17.3°
Sets 10:48:11 0° 195° (SSW) 2,852 8.9 17.5°
